Home > Weather > Kumamoto > Past weeks

Flag for Japan Past Weather in Kumamoto, Japan — Yesterday and Last 2 Weeks

Now
67 °F

Partly sunny.


Feels Like: 67 °F
Forecast: 67 / 81 °F
Wind: 2 mph from South

Location: Kumamoto

Current Time: Aug 30, 2016 at 6:52:00 AM

Latest Report: Aug 30, 2016 at 6:00 AM


Visibility: 16 mi

Pressure: 29.47 "Hg

Humidity: 86%

Dew Point: 63 °F

Location of KumamotoLocation

Past Weather in Kumamoto — Graph

°F

Kumamoto Temperature Yesterday

Maximum temperature yesterday: 78 °F (at 11:00 AM)
Minimum temperature yesterday: 69 °F (at 11:00 PM)
Average temperature yesterday: 73 °F

High & Low Weather Summary for the Past Weeks

 TemperatureHumidityPressure
High99 °F (Aug 23, 3:00 PM)98% (Aug 28, 9:00 PM)29.72 "Hg (Aug 28, 9:00 PM)
Low67 °F (Aug 30, 3:00 AM)33% (Aug 23, 4:00 PM)29.32 "Hg (Aug 28, 3:00 PM)
Average85 °F68%29.60 "Hg
* Reported Aug 15 5:00 AM — Aug 30 5:00 AM, Kumamoto, Weather by CustomWeather, © 2016

Note: Actual official high and low records may vary slightly from our data, if they occured in-between our weather recording intervals... More about our weather records

Advertising

Kumamoto Weather History for the Previous 24 Hours

Scroll right to see more
 ConditionsComfort  
Time TempWeatherWind HumidityBarometerVisibility
5:00 AM
Tue, Aug 30
67 °FMild.2 mph85%29.47 "HgN/A
4:00 AM67 °FMild.2 mph84%29.47 "HgN/A
3:00 AM67 °FOvercast.3 mph85%29.47 "Hg16 mi
2:00 AM67 °FMild.1 mph85%29.47 "HgN/A
1:00 AM67 °FMild.3 mph85%29.47 "HgN/A
12:00 AM69 °FMild.1 mph82%29.50 "HgN/A
11:00 PM
Mon, Aug 29
69 °FMild.2 mph80%29.50 "HgN/A
10:00 PM69 °FMild.2 mph75%29.54 "HgN/A
9:00 PM70 °FPassing clouds.5 mph75%29.54 "Hg16 mi
8:00 PM71 °FMild.3 mph72%29.50 "HgN/A
7:00 PM73 °FMild.5 mph66%29.50 "HgN/A
6:00 PM75 °FPassing clouds.5 mph62%29.47 "Hg19 mi
5:00 PM76 °FMild.9 mph60%29.47 "HgN/A
4:00 PM77 °FWarm.10 mph62%29.47 "HgN/A
3:00 PM76 °FPartly sunny.9 mph62%29.47 "Hg16 mi
2:00 PM74 °FMild.10 mph75%29.50 "HgN/A
1:00 PM71 °FMild.9 mph85%29.50 "HgN/A
12:00 PM78 °FPartly sunny.9 mph62%29.47 "Hg12 mi
11:00 AM78 °FWarm.12 mph68%29.47 "HgN/A
10:00 AM74 °FMild.10 mph77%29.47 "HgN/A
9:00 AM73 °FSprinkles. Overcast.5 mph81%29.50 "Hg9 mi
8:00 AM70 °FMild.6 mph90%29.47 "HgN/A
7:00 AM72 °FMild.3 mph80%29.44 "HgN/A
6:00 AM71 °FOvercast.3 mph82%29.44 "Hg19 mi
Weather by CustomWeather, © 2016

See weather overviewHow to use our weather pages